Regional Weather Roundup
Issued by NWS

Home | Current Version | Previous Version | Graphics & Text | Print | Product List | Glossary On
Versions: 1 2 3 4 5 6 7 8 9 10 11 12 13 14 15 16 17 18 19 20 21 22 23 24 25 26 27 28 29 30 31 32 33 34 35 36 37 38 39 40 41 42 43 44 45 46 47 48 49 50
000
ASUS43 KOAX 262202
RWRNE

WEATHER ROUNDUP FOR NEBRASKA
NATIONAL WEATHER SERVICE OMAHA NE
500 PM CDT MON SEP 26 2016

NOTES: SATELLITE DATA IS BEING USED TO AUGMENT CLOUD COVER ABOVE
       12000 FEET.
       "FAIR" INDICATES FEW OR NO CLOUDS BELOW 12,000 FEET WITH NO
       SIGNIFICANT WEATHER AND/OR OBSTRUCTIONS TO VISIBILITY.

  * THESE STATIONS DO NOT REPORT WEATHER SUCH AS RAIN...SNOW OR FOG.

NEZ001>004-019>022-054>056-262300-
NEBRASKA PANHANDLE

CITY           SKY/WX    TMP DP  RH WIND       PRES   REMARKS
SCOTTSBLUFF    SUNNY     77  41  27 NW12G17   30.26F
ALLIANCE       SUNNY     73  40  30 NW16G26   30.23F
CHADRON        SUNNY     74  39  28 NW14G25   30.22F
KIMBALL        SUNNY     72  41  32 NW9       30.30F
SIDNEY         LGT RAIN  74  38  27 N15G22    30.29F
$$

NEZ057>060-069>072-079>082-262300-
SOUTHWEST NEBRASKA

CITY           SKY/WX    TMP DP  RH WIND       PRES   REMARKS
NORTH PLATTE   SUNNY     77  41  27 NW14      30.19F
IMPERIAL       SUNNY     78  34  20 N16G24    30.22F
LEXINGTON      SUNNY     78  38  24 N12G20    30.17F
MCCOOK         SUNNY     80  39  23 NW13      30.18F
OGALLALA       SUNNY     79  37  22 N14       30.22F
$$

NEZ005>010-023>029-035>040-094-262300-
NORTH CENTRAL NEBRASKA

CITY           SKY/WX    TMP DP  RH WIND       PRES   REMARKS
VALENTINE      SUNNY     74  36  25 NW14      30.16F
AINSWORTH      SUNNY     73  40  30 NW13G28   30.17F
BROKEN BOW     SUNNY     77  38  24 N12G23    30.16F
O`NEILL        SUNNY     74  33  21 NW18G24   30.14F
ORD            SUNNY     75  37  25 NW16G24   30.13F
THEDFORD       SUNNY     76  40  27 NW8       30.19F
$$

NEZ041-046>049-061>064-073>077-083>087-262300-
SOUTH CENTRAL NEBRASKA

CITY           SKY/WX    TMP DP  RH WIND       PRES   REMARKS
GRAND ISLAND   SUNNY     78  38  23 NW13G23   30.13F
AURORA         SUNNY     76  36  23 NW9       30.13F
HASTINGS       SUNNY     77  36  22 W12G18    30.15F
HEBRON         SUNNY     75  36  23 NW8G18    30.15F
HOLDREGE       SUNNY     77  34  20 NW9G16    30.16F
KEARNEY *      SUNNY     79  37  22 NW12      30.14F
YORK           SUNNY     75  37  25 NW9G23    30.13F
$$

NEZ011>018-030>034-042>045-262300-
NORTHEAST NEBRASKA

CITY           SKY/WX    TMP DP  RH WIND       PRES   REMARKS
NORFOLK        SUNNY     75  36  24 NW15      30.09F
ALBION         SUNNY     74  38  27 NW13G20   30.12F
BLAIR          SUNNY     75  40  27 W12G21    30.09F
FREMONT        SUNNY     75  38  26 W12       30.10F
TEKAMAH        SUNNY     76  39  26 W15       30.08F
WAYNE          SUNNY     73  40  30 W16G25    30.09F
$$

NEZ050>053-065>068-078-088>093-262300-
SOUTHEAST NEBRASKA

CITY           SKY/WX    TMP DP  RH WIND       PRES   REMARKS
LINCOLN        SUNNY     77  37  23 W14G21    30.13F
OMAHA EPPLEY   MOSUNNY   77  40  26 W10       30.09F
BEATRICE       SUNNY     76  41  28 W12       30.14F
FALLS CITY     SUNNY     75  44  33 W10       30.12F
NEBRASKA CITY  SUNNY     74  21  13 NW15G21   30.12F
PLATTSMOUTH    SUNNY     75  30  19 W9G21     30.11F
$$

NEZ044-045-051>053-067-262300-
OMAHA AREA

CITY           SKY/WX    TMP DP  RH WIND       PRES   REMARKS
OMAHA EPPLEY   MOSUNNY   77  40  26 W10       30.09F
BLAIR          SUNNY     75  40  27 W12G21    30.09F
FREMONT        SUNNY     75  38  26 W12       30.10F
MILLARD        SUNNY     75  40  28 W12G21    30.10F
OFFUTT AFB     SUNNY     75  40  28 W12       30.09F
PLATTSMOUTH    SUNNY     75  30  19 W9G21     30.11F
WAHOO          FAIR      76  36  22 W10G17    30.11F
$$




USA.gov is the U.S. government's official web portal to all federal, state and local government web resources and services.